Temperature
9 10 11 12 13 14 14 13 14 14 13 13 14 14 15 15 15 15 15 16 15 14 14 14 15 16 16 16 16 16 16 17 16 16 15 16 16 17 18 18 18 17 17 16
9 10 12 13 13 13 13 13 13 12 12 13 13 14 15 15 14 14 14 14 13 13 13 13 14 14 15 16 16 16 16 16 16 16 16 16 16 16 17 17 17 17 17 17
10 11 12 12 12 12 12 13 13 12 11 11 12 14 14 13 12 11 11 11 11 11 12 12 12 13 14 15 15 16 16 16 16 16 16 15 15 15 15 16 17 17 17 17
9 10 11 11 12 13 12 12 12 12 13 13 12 15 14 13 12 12 12 11 11 10 11 10 11 12 13 13 14 14 15 15 15 16 15 15 14 14 15 15 16 16 16 16
8 10 10 11 11 12 11 11 11 11 12 12 12 13 15 13 12 12 12 11 11 10 10 10 10 11 12 13 13 13 14 14 15 15 15 15 14 13 13 13 14 14 15 15
8 9 10 10 10 11 10 10 10 10 11 12 12 13 15 13 13 12 12 11 10 10 10 10 10 11 11 12 13 13 13 13 14 14 14 14 14 13 13 13 13 13 13 14
7 7 8 9 8 8 10 10 10 10 11 12 10 11 14 12 12 12 12 11 10 10 10 9 10 10 11 11 12 12 13 13 13 13 13 13 13 13 13 13 13 12 12 12
7 7 7 8 9 8 9 10 11 12 12 12 9 11 13 12 11 10 10 10 10 10 9 9 9 9 9 10 10 11 11 12 12 12 12 13 13 13 13 13 12 12 12 12
9 7 7 7 8 9 8 9 10 11 10 12 12 11 12 11 11 11 11 10 10 10 9 8 8 8 8 9 9 9 10 10 10 11 11 11 12 12 12 12 12 12 12 12
9 7 7 8 8 8 9 9 9 9 10 12 13 13 13 12 12 12 12 11 10 9 9 8 7 7 7 8 8 8 8 8 9 9 9 10 10 11 11 11 12 12 12 12
9 8 7 8 8 8 8 8 9 10 10 12 13 14 13 13 12 12 12 11 10 9 8 7 6 6 7 7 7 7 7 7 8 8 8 9 9 10 10 10 11 11 11 11
9 9 7 7 7 8 9 9 9 10 9 9 11 13 12 12 12 11 11 10 9 8 6 6 5 5 5 6 6 6 6 7 7 7 7 8 8 8 9 9 10 10 10 10
9 8 7 7 7 7 8 8 8 8 8 8 11 13 11 11 11 11 10 10 9 7 6 5 4 4 4 5 5 5 6 6 6 6 7 7 7 8 8 8 8 9 9 9
9 9 9 9 9 8 7 7 8 8 8 9 10 12 12 12 12 11 10 9 8 6 5 4 3 3 3 4 4 5 5 5 6 6 6 6 7 7 7 7 7 8 8 8
9 8 7 7 7 7 7 7 7 7 8 9 10 10 11 12 12 11 10 8 7 5 4 3 2 2 2 3 3 4 4 5 5 5 5 6 6 6 6 6 6 6 6 6
9 7 6 6 7 7 7 7 7 8 8 9 9 9 11 11 10 10 9 8 6 5 3 2 1 1 1 2 3 3 4 4 4 4 4 4 4 4 4 4 4 4 4 4
8 7 6 7 7 7 7 8 8 8 8 9 9 10 11 11 11 10 8 7 5 3 2 1 1 1 1 1 2 2 2 3 3 3 3 3 2 2 2 2 2 3 2 2
8 8 7 7 7 6 10 9 9 8 9 9 9 10 11 10 9 8 6 6 4 3 2 1 1 1 1 1 1 1 2 2 2 2 1 1 1 1 1 1 1 1 1 0
9 8 7 7 7 8 10 8 8 8 9 9 9 10 10 9 8 8 6 5 4 4 3 2 1 1 1 1 1 1 1 1 1 1 1 0 0 0 0 -0 -0 -0 -0 -1
7 8 8 7 7 8 10 9 8 9 10 10 9 10 10 8 10 10 6 6 5 4 3 2 2 1 1 1 1 1 1 1 0 0 0 0 0 0 -0 -1 -1 -1 -1 -1
6 6 7 7 7 9 10 8 8 9 10 10 9 9 9 9 9 7 6 5 5 4 4 3 3 2 2 1 1 1 1 1 0 0 0 0 -0 -0 -0 -1 -1 -1 -1 -1
7 7 7 7 7 9 9 8 9 10 9 9 8 8 8 7 7 6 6 5 5 5 4 4 3 3 2 2 1 1 1 1 0 0 0 0 -0 -0 -0 -0 -1 -1 -1 -1
8 9 9 9 9 9 8 9 9 8 8 8 8 8 7 7 6 6 5 5 5 5 4 4 4 3 3 2 2 2 1 1 1 0 0 0 -0 -0 -1 -1 -1 -1 -1 -2
8 7 8 8 9 9 8 8 8 8 8 8 8 8 8 7 7 6 6 5 5 5 4 4 4 3 3 2 2 2 1 1 0 0 0 -0 -0 -0 -1 -1 -1 -1 -2 -2
8 7 7 8 9 8 8 8 8 8 8 8 8 8 8 7 7 6 6 6 5 5 4 4 4 3 3 3 2 2 1 1 1 0 0 -0 -0 -1 -1 -1 -2 -2 -2 -3
7 7 8 9 9 9 9 7 7 7 7 7 7 8 7 7 7 6 6 6 5 5 4 4 4 3 3 3 2 2 1 1 0 0 0 -0 -1 -1 -1 -2 -2 -2 -3 -3
Wind_Speed
13 12 17 22 19 7 14 14 12 10 5 8 10 11 11 11 11 12 12 11 9 8 7 6 6 6 6 7 9 11 12 13 13 12 12 13 14 14 13 13 17 18 18 19
11 15 16 16 13 8 14 13 10 6 4 4 5 10 10 8 8 7 7 6 4 3 2 3 3 3 4 5 7 9 10 11 13 12 12 13 14 13 14 12 14 18 19 19
11 10 14 16 16 12 11 12 10 6 5 3 3 6 5 3 3 3 3 3 3 3 4 5 5 5 4 4 5 6 8 9 10 12 11 11 12 12 12 13 14 17 19 20
4 10 16 18 17 14 9 6 8 7 6 3 2 3 4 5 7 8 8 7 7 6 6 6 7 7 7 6 6 6 6 7 8 9 11 15 14 15 17 15 14 16 17 18
5 12 17 18 14 10 6 7 6 4 3 2 3 4 4 7 9 8 7 7 7 6 6 7 7 7 7 7 6 6 6 5 5 6 9 12 15 15 14 15 16 16 15 16
6 4 5 7 6 8 11 8 6 3 2 5 5 6 5 7 9 9 6 4 5 6 6 7 7 7 7 8 7 7 7 7 6 6 7 10 13 15 16 16 15 15 13 13
6 5 4 5 8 6 6 6 4 5 6 5 4 5 5 6 6 5 4 1 4 5 6 8 9 9 9 10 10 9 9 9 8 8 8 8 11 13 16 16 15 15 13 12
5 5 3 2 4 7 8 7 4 5 6 4 4 6 3 4 3 4 4 3 4 5 6 7 8 9 9 10 10 10 11 11 10 9 9 9 9 9 10 13 13 14 12 12
5 5 3 4 3 7 7 5 1 1 1 2 5 4 3 4 5 6 5 2 4 6 6 7 8 8 9 10 10 10 10 11 11 11 11 10 9 9 10 11 11 11 12 10
6 7 4 4 5 5 1 6 4 4 4 4 4 5 7 12 11 7 2 4 7 7 7 8 8 9 9 9 9 9 9 10 11 11 10 9 10 10 9 9 10 10 10 9
5 6 5 4 4 6 6 4 3 3 2 3 4 3 5 12 8 3 3 6 8 8 8 8 8 9 9 9 9 9 10 10 10 10 10 9 9 9 8 8 8 8 7 7
3 5 5 2 1 1 3 5 6 4 4 3 2 3 5 6 4 3 6 7 7 6 7 7 8 9 9 10 10 10 10 10 10 10 10 9 9 8 7 6 6 5 4 4
5 6 6 3 3 4 4 5 5 2 3 4 3 3 4 4 4 5 6 8 7 6 7 7 7 8 9 9 10 10 10 11 10 10 9 9 9 8 7 6 5 4 2 1
4 3 3 4 3 7 6 9 9 6 5 5 6 3 4 5 6 7 7 7 6 6 6 7 7 8 8 9 9 10 10 10 10 10 10 10 9 9 7 6 6 6 6 6
2 3 2 2 3 4 5 10 13 12 9 7 5 5 8 8 8 8 7 7 6 5 6 6 7 8 8 9 9 9 10 10 10 10 10 10 9 9 9 9 9 10 10 9
3 3 2 1 3 4 6 10 14 14 13 13 11 11 10 8 6 7 7 6 5 4 4 5 6 7 8 8 9 9 9 10 9 10 10 9 10 10 10 10 10 11 11 11
4 5 3 2 2 2 8 12 15 11 11 11 13 10 8 8 9 8 7 5 3 2 3 4 5 6 6 7 7 8 8 8 9 9 9 10 10 10 10 11 11 12 12 12
6 5 2 2 2 6 1 2 8 13 13 13 11 12 11 11 10 7 4 2 0 0 1 2 3 4 5 6 6 6 7 8 9 9 9 9 9 10 10 11 11 11 10 10
5 5 3 2 3 6 4 4 6 8 7 12 15 15 12 8 6 3 3 2 2 2 1 2 2 3 4 5 5 6 7 8 8 8 8 8 8 9 10 10 10 9 10 10
3 4 3 3 4 4 1 3 5 5 4 5 8 9 7 3 4 0 6 5 4 3 2 2 2 3 3 4 4 6 7 8 8 7 7 8 8 9 10 10 9 9 10 10
6 4 6 6 6 6 2 4 7 5 3 4 4 5 5 5 4 2 6 6 5 5 4 3 3 3 3 3 4 6 7 7 6 6 7 8 8 9 9 9 9 9 9 9
10 8 7 7 7 6 5 8 6 1 2 1 3 4 5 5 3 4 6 7 7 7 6 5 4 4 3 4 5 6 6 5 5 6 7 7 8 7 7 8 8 8 8 8
9 8 5 7 6 1 5 5 2 0 3 3 3 4 4 4 5 6 7 8 8 8 7 6 6 5 4 4 5 6 4 5 6 7 7 7 8 7 6 7 7 6 5 5
6 5 5 6 8 6 6 6 4 4 5 5 5 5 5 6 6 7 7 8 9 9 8 7 7 7 6 5 5 5 6 6 7 7 7 6 7 7 6 5 4 4 4 4
6 8 7 7 6 4 5 5 2 2 3 4 4 5 6 7 7 8 8 9 10 9 9 8 8 8 7 6 6 6 7 7 8 7 6 6 5 6 6 5 5 4 4 3
6 8 8 7 5 4 3 2 1 2 4 5 5 5 5 7 7 8 8 9 10 10 10 9 9 8 8 8 7 7 7 7 8 7 6 5 4 4 4 5 5 7 6 6
Wind_Direction
177 182 187 188 192 212 181 185 187 188 162 199 221 238 247 252 253 258 261 265 268 273 285 294 296 290 275 262 253 248 245 239 235 231 226 225 226 227 227 227 229 228 224 218
168 198 190 180 180 176 176 182 175 152 153 209 230 251 256 258 253 261 267 271 279 295 318 342 336 323 300 282 271 261 252 248 241 234 232 232 232 232 231 227 228 228 226 221
175 176 170 172 175 170 180 187 174 153 144 145 269 245 195 131 124 111 103 93 75 55 40 31 23 17 2 338 312 290 275 264 254 248 242 239 237 237 233 230 228 226 224 222
139 155 170 177 180 175 165 168 157 151 180 175 266 227 153 131 120 109 102 89 71 52 40 31 25 21 14 359 340 316 299 281 268 256 244 238 234 233 233 232 232 230 225 223
146 166 172 178 180 174 130 119 125 139 168 210 211 237 165 150 140 122 107 82 59 43 31 25 17 8 4 357 347 337 326 309 290 266 250 247 245 245 245 242 240 237 230 223
88 99 153 156 131 131 124 105 89 96 196 234 206 219 189 168 155 143 126 83 46 28 18 14 9 1 358 356 350 341 333 326 317 294 268 251 250 249 248 246 244 241 237 228
90 76 71 113 116 120 149 152 158 185 206 220 155 223 220 149 155 163 154 71 10 1 1 1 359 355 351 348 344 337 331 324 321 310 291 273 261 256 252 250 247 245 242 234
118 110 77 104 146 159 173 194 210 201 194 171 179 227 167 158 202 219 228 262 314 341 351 351 350 347 343 340 337 334 329 321 319 313 303 291 278 266 259 255 253 250 247 242
124 104 80 74 92 143 157 187 312 75 101 221 202 221 236 192 185 187 197 263 329 341 346 348 348 346 341 337 335 331 325 320 318 315 309 299 291 277 270 266 260 256 253 251
114 116 114 117 103 52 132 146 160 194 207 220 201 208 180 169 167 170 204 334 342 343 347 351 349 348 344 339 335 332 329 324 321 319 314 307 300 292 283 276 266 260 257 250
111 120 131 152 180 168 152 161 178 180 245 236 202 154 145 159 160 179 315 334 337 342 348 349 349 350 348 348 347 346 343 338 334 330 322 315 310 303 295 285 278 272 262 250
103 120 125 121 33 259 214 190 180 198 203 221 249 139 130 170 187 262 311 329 338 348 351 352 354 355 358 358 357 356 352 348 344 338 333 329 324 318 313 308 304 295 278 258
134 130 128 146 189 192 205 193 194 149 146 189 214 150 133 187 238 296 317 330 341 347 352 356 1 4 3 1 0 360 359 354 349 348 346 346 346 343 343 346 349 354 4 35
120 133 190 188 162 170 191 194 188 178 194 205 230 223 202 233 291 319 327 332 337 347 354 359 2 4 4 4 3 2 1 360 359 2 5 6 4 3 7 20 34 42 53 63
112 123 120 107 121 162 197 199 198 208 215 219 231 243 263 288 303 310 314 323 329 343 355 1 1 0 1 3 4 5 5 7 8 15 21 20 20 25 31 41 52 60 65 69
111 122 128 164 190 215 237 224 214 221 229 239 256 273 271 282 287 296 308 319 323 341 354 360 1 1 2 3 4 7 11 13 18 27 31 30 38 45 48 53 61 68 71 74
147 143 158 183 173 248 253 228 211 210 214 221 234 245 266 284 298 308 312 310 314 339 354 0 2 4 3 5 8 13 16 23 32 37 38 40 46 53 55 60 65 67 72 76
157 151 155 174 191 241 222 140 204 217 226 222 237 253 269 287 303 301 287 259 257 27 9 11 7 9 11 14 21 28 34 39 43 44 45 47 55 62 63 65 67 68 71 75
173 166 169 204 250 272 265 197 180 192 231 225 233 253 271 295 293 248 168 149 133 114 80 46 32 25 28 32 35 47 52 51 52 49 49 52 61 68 69 68 67 69 73 72
151 179 195 207 248 249 156 136 173 182 197 181 210 243 270 281 281 169 153 156 149 138 128 107 86 71 60 53 58 66 63 59 55 54 58 61 68 74 76 75 74 73 75 76
170 186 210 223 246 266 232 147 157 197 162 159 214 252 260 246 275 100 150 162 159 150 143 132 115 98 80 78 86 80 72 63 61 68 72 71 73 77 81 82 82 85 86 86
190 192 201 206 226 246 153 160 191 209 79 227 258 260 256 250 237 182 180 175 169 164 160 153 140 125 111 111 110 97 82 80 86 88 85 80 80 83 86 89 89 93 98 98
207 206 202 211 226 4 172 197 210 289 268 274 268 260 249 243 230 207 196 186 179 176 169 166 160 147 136 134 135 122 117 119 113 102 94 91 89 86 89 93 97 98 100 103
209 203 218 240 248 245 239 244 256 257 262 273 265 260 242 242 234 213 199 188 182 181 178 173 172 167 157 149 145 138 139 138 128 116 109 105 101 96 91 90 91 95 98 104
199 181 208 238 254 259 241 214 225 282 287 287 276 256 248 244 233 216 203 193 185 181 181 180 182 177 168 160 154 152 152 149 135 125 119 114 107 106 97 85 74 76 68 56
194 193 199 223 213 208 174 122 18 315 310 310 296 276 252 236 234 216 207 194 186 182 180 183 184 180 173 169 163 162 163 159 146 138 136 130 125 119 115 113 100 77 79 87
Height
1479 1482 1480 1480 1483 1483 1487 1491 1494 1497 1503 1503 1502 1502 1502 1502 1503 1503 1502 1503 1503 1504 1504 1503 1503 1503 1503 1504 1506 1507 1508 1510 1511 1512 1512 1513 1513 1514 1514 1515 1517 1518 1519 1520
1479 1477 1476 1481 1486 1487 1488 1491 1494 1501 1503 1502 1502 1500 1498 1499 1500 1500 1500 1500 1501 1501 1500 1499 1498 1498 1498 1499 1500 1501 1502 1504 1505 1505 1506 1506 1507 1507 1508 1509 1509 1511 1512 1513
1471 1474 1478 1482 1486 1488 1489 1490 1493 1497 1503 1505 1502 1494 1495 1499 1500 1500 1500 1499 1499 1499 1498 1497 1496 1495 1494 1494 1494 1495 1495 1496 1497 1498 1499 1499 1499 1500 1500 1501 1501 1503 1504 1505
1476 1476 1479 1482 1484 1485 1491 1492 1494 1498 1497 1497 1500 1490 1491 1496 1498 1499 1499 1499 1499 1498 1497 1496 1494 1492 1491 1490 1490 1490 1490 1490 1490 1491 1491 1491 1491 1491 1492 1494 1494 1495 1496 1496
1476 1476 1478 1481 1484 1485 1492 1496 1497 1499 1497 1498 1500 1494 1486 1494 1496 1498 1499 1499 1499 1498 1496 1494 1492 1491 1490 1489 1487 1486 1486 1485 1485 1485 1485 1485 1485 1485 1487 1487 1487 1488 1488 1488
1478 1480 1481 1484 1488 1490 1496 1500 1502 1502 1499 1499 1495 1493 1484 1489 1492 1496 1498 1499 1498 1497 1495 1493 1491 1490 1488 1487 1485 1484 1483 1482 1481 1480 1479 1479 1478 1479 1479 1480 1480 1480 1481 1481
1481 1484 1487 1488 1492 1497 1495 1498 1501 1501 1499 1491 1501 1498 1485 1490 1493 1495 1497 1498 1497 1496 1494 1492 1490 1488 1486 1484 1482 1481 1479 1478 1477 1475 1474 1473 1472 1472 1472 1472 1473 1473 1473 1473
1479 1486 1489 1489 1489 1493 1495 1494 1491 1488 1487 1487 1503 1494 1486 1491 1494 1496 1497 1497 1496 1495 1493 1490 1488 1485 1482 1480 1478 1476 1474 1473 1471 1470 1469 1467 1466 1465 1465 1465 1466 1466 1466 1467
1475 1487 1491 1491 1492 1492 1495 1495 1496 1491 1494 1488 1484 1488 1488 1491 1492 1494 1495 1495 1494 1493 1491 1488 1485 1482 1479 1477 1474 1472 1470 1468 1466 1464 1463 1461 1460 1459 1459 1459 1459 1459 1459 1460
1473 1486 1491 1493 1493 1496 1495 1494 1497 1496 1491 1481 1478 1480 1477 1486 1487 1490 1492 1492 1491 1490 1487 1485 1482 1478 1475 1473 1470 1468 1465 1463 1461 1459 1457 1455 1454 1454 1453 1452 1452 1452 1453 1453
1474 1481 1492 1492 1492 1492 1496 1497 1495 1492 1491 1483 1475 1475 1476 1480 1484 1487 1488 1488 1488 1486 1483 1481 1478 1474 1472 1469 1466 1464 1461 1459 1456 1454 1452 1450 1449 1448 1447 1447 1447 1446 1446 1447
1476 1479 1489 1494 1495 1494 1492 1491 1492 1490 1494 1493 1482 1479 1480 1482 1484 1486 1486 1485 1484 1482 1480 1477 1474 1471 1469 1466 1463 1460 1458 1455 1453 1451 1449 1447 1445 1444 1443 1442 1442 1441 1441 1441
1475 1480 1488 1493 1497 1496 1492 1492 1492 1493 1493 1493 1484 1477 1481 1482 1483 1483 1483 1482 1480 1479 1477 1474 1472 1469 1466 1463 1461 1458 1456 1453 1451 1448 1446 1444 1442 1441 1439 1438 1437 1437 1436 1436
1475 1477 1479 1478 1477 1484 1489 1490 1492 1493 1492 1488 1483 1477 1478 1479 1479 1479 1479 1479 1478 1476 1474 1471 1469 1466 1464 1461 1459 1456 1454 1451 1448 1446 1444 1442 1440 1438 1437 1435 1434 1433 1433 1433
1475 1480 1483 1483 1484 1486 1486 1487 1489 1490 1486 1485 1479 1481 1476 1476 1477 1477 1477 1476 1475 1473 1471 1469 1467 1464 1462 1460 1457 1455 1452 1449 1447 1444 1442 1440 1438 1436 1434 1433 1432 1431 1431 1431
1477 1481 1485 1487 1485 1486 1485 1483 1484 1485 1484 1482 1482 1480 1474 1475 1475 1475 1474 1473 1472 1471 1469 1467 1465 1463 1460 1458 1456 1453 1451 1448 1446 1444 1441 1439 1437 1435 1433 1432 1431 1430 1430 1430
1477 1481 1484 1481 1484 1485 1479 1473 1476 1478 1477 1478 1478 1474 1471 1472 1472 1472 1471 1470 1469 1468 1467 1465 1463 1461 1459 1457 1454 1452 1450 1448 1446 1444 1442 1440 1438 1436 1434 1433 1432 1431 1431 1431
1476 1479 1481 1481 1484 1484 1467 1468 1469 1471 1471 1473 1472 1470 1470 1470 1470 1469 1468 1468 1467 1466 1465 1463 1461 1460 1458 1456 1454 1452 1450 1449 1447 1445 1443 1441 1439 1438 1436 1435 1435 1434 1434 1435
1475 1477 1480 1480 1477 1469 1464 1466 1468 1470 1468 1467 1469 1468 1468 1468 1467 1465 1465 1465 1465 1464 1463 1461 1460 1459 1457 1456 1454 1453 1451 1450 1448 1447 1445 1443 1442 1441 1440 1439 1439 1439 1439 1440
1477 1476 1478 1478 1477 1467 1461 1463 1465 1467 1464 1463 1465 1465 1466 1467 1463 1463 1464 1463 1463 1462 1461 1461 1460 1459 1458 1456 1456 1455 1453 1452 1451 1450 1448 1447 1446 1445 1444 1444 1444 1444 1444 1445
1477 1477 1477 1475 1473 1462 1460 1463 1466 1466 1461 1462 1463 1464 1464 1464 1463 1463 1462 1462 1462 1462 1461 1461 1460 1459 1459 1458 1457 1457 1456 1455 1454 1453 1452 1451 1450 1449 1449 1448 1448 1448 1449 1449
1467 1469 1470 1469 1469 1463 1460 1462 1462 1460 1461 1461 1461 1461 1461 1461 1460 1460 1460 1460 1460 1460 1461 1461 1461 1460 1460 1459 1459 1459 1458 1458 1457 1456 1456 1455 1454 1453 1453 1453 1452 1452 1453 1453
1461 1460 1459 1460 1459 1457 1458 1458 1459 1459 1459 1459 1459 1458 1458 1457 1457 1457 1457 1458 1458 1459 1460 1460 1461 1461 1461 1461 1461 1461 1460 1460 1460 1459 1459 1458 1457 1457 1456 1456 1456 1455 1455 1455
1458 1460 1459 1457 1454 1455 1456 1456 1457 1457 1457 1456 1456 1456 1455 1455 1454 1454 1454 1455 1456 1457 1458 1459 1460 1460 1461 1461 1461 1461 1461 1461 1461 1461 1460 1460 1459 1459 1459 1458 1458 1457 1457 1456
1451 1455 1455 1453 1452 1453 1452 1453 1454 1454 1454 1454 1453 1453 1452 1451 1451 1451 1451 1452 1453 1454 1455 1457 1458 1459 1460 1460 1461 1461 1461 1462 1462 1462 1461 1461 1461 1460 1460 1459 1459 1458 1457 1457
1449 1449 1449 1447 1448 1449 1450 1451 1451 1451 1451 1451 1450 1449 1448 1448 1447 1447 1448 1448 1449 1451 1453 1454 1456 1457 1458 1459 1460 1461 1461 1461 1462 1462 1462 1462 1461 1461 1461 1460 1459 1458 1457 1455